QPF
0.00 0.02 0.00 0.00 0.00 0.06 0.13 0.16 0.13 0.11 0.13 0.21 0.21 0.15 0.06 0.02 0.00 0.00 0.00 0.00 0.00 0.00 0.00 0.00 0.00 0.00 0.00 0.00 0.00 0.00 0.00 0.00 0.00 0.00 0.00 0.00 0.00 0.00 0.00 0.00 0.00 0.00 0.00
0.00 0.00 0.00 0.00 0.00 0.05 0.04 0.02 0.02 0.06 0.11 0.14 0.26 0.23 0.12 0.04 0.00 0.00 0.00 0.00 0.00 0.00 0.00 0.00 0.00 0.00 0.00 0.00 0.00 0.00 0.00 0.00 0.00 0.00 0.00 0.00 0.00 0.00 0.00 0.00 0.00 0.00 0.00
0.00 0.00 0.00 0.00 0.00 0.00 0.00 0.00 0.00 0.05 0.16 0.19 0.19 0.08 0.01 0.00 0.00 0.00 0.00 0.00 0.00 0.00 0.00 0.00 0.00 0.00 0.00 0.00 0.00 0.00 0.00 0.00 0.00 0.00 0.00 0.00 0.00 0.00 0.00 0.00 0.00 0.00 0.00
0.02 0.02 0.00 0.01 0.00 0.00 0.01 0.00 0.00 0.01 0.01 0.00 0.01 0.01 0.00 0.00 0.00 0.00 0.00 0.00 0.00 0.00 0.00 0.00 0.00 0.00 0.00 0.00 0.00 0.00 0.00 0.00 0.00 0.00 0.00 0.00 0.00 0.00 0.00 0.00 0.00 0.00 0.00
0.04 0.01 0.02 0.01 0.02 0.04 0.02 0.00 0.00 0.00 0.00 0.00 0.00 0.00 0.00 0.00 0.00 0.00 0.00 0.00 0.00 0.00 0.00 0.00 0.00 0.00 0.00 0.00 0.00 0.00 0.00 0.00 0.00 0.00 0.00 0.00 0.00 0.00 0.00 0.00 0.00 0.00 0.00
0.00 0.01 0.04 0.01 0.06 0.02 0.01 0.01 0.00 0.00 0.00 0.00 0.00 0.00 0.00 0.00 0.00 0.00 0.00 0.00 0.00 0.00 0.00 0.00 0.00 0.00 0.00 0.00 0.00 0.00 0.00 0.00 0.00 0.00 0.00 0.00 0.00 0.00 0.00 0.00 0.00 0.00 0.00
0.00 0.00 0.00 0.00 0.01 0.01 0.00 0.00 0.00 0.00 0.00 0.00 0.00 0.00 0.00 0.00 0.00 0.00 0.00 0.00 0.00 0.00 0.00 0.00 0.00 0.00 0.00 0.00 0.00 0.00 0.00 0.00 0.00 0.00 0.00 0.00 0.00 0.00 0.00 0.00 0.00 0.00 0.00
0.00 0.00 0.00 0.00 0.00 0.00 0.00 0.00 0.00 0.00 0.00 0.00 0.00 0.00 0.00 0.00 0.00 0.00 0.00 0.00 0.00 0.00 0.00 0.00 0.00 0.00 0.00 0.00 0.00 0.00 0.00 0.00 0.00 0.00 0.00 0.00 0.00 0.00 0.00 0.00 0.00 0.00 0.00
0.00 0.00 0.00 0.00 0.00 0.00 0.00 0.00 0.00 0.00 0.00 0.00 0.00 0.00 0.00 0.00 0.00 0.00 0.00 0.00 0.00 0.00 0.00 0.00 0.00 0.00 0.00 0.00 0.00 0.00 0.00 0.00 0.00 0.00 0.00 0.00 0.00 0.00 0.00 0.00 0.00 0.00 0.00
0.00 0.00 0.00 0.00 0.00 0.00 0.00 0.00 0.00 0.00 0.00 0.00 0.00 0.00 0.00 0.00 0.00 0.00 0.00 0.00 0.00 0.00 0.00 0.00 0.00 0.00 0.00 0.00 0.00 0.00 0.00 0.00 0.00 0.00 0.00 0.00 0.00 0.00 0.00 0.00 0.00 0.00 0.00
0.02 0.00 0.00 0.02 0.02 0.02 0.00 0.01 0.00 0.00 0.00 0.00 0.00 0.00 0.00 0.00 0.00 0.00 0.00 0.00 0.00 0.00 0.00 0.00 0.00 0.00 0.00 0.00 0.00 0.00 0.00 0.00 0.00 0.00 0.00 0.00 0.00 0.00 0.00 0.00 0.00 0.00 0.00
0.08 0.26 0.54 0.70 0.44 0.29 0.13 0.05 0.01 0.00 0.00 0.00 0.00 0.00 0.00 0.00 0.00 0.00 0.00 0.00 0.00 0.00 0.00 0.00 0.00 0.00 0.00 0.00 0.00 0.00 0.00 0.00 0.00 0.00 0.00 0.00 0.00 0.00 0.00 0.00 0.00 0.00 0.00
0.39 0.63 0.65 0.44 0.31 0.24 0.18 0.10 0.01 0.00 0.00 0.00 0.00 0.00 0.00 0.00 0.00 0.00 0.00 0.00 0.00 0.00 0.00 0.00 0.00 0.00 0.00 0.00 0.00 0.00 0.00 0.00 0.00 0.00 0.00 0.00 0.00 0.00 0.00 0.00 0.00 0.00 0.00
0.31 0.30 0.29 0.26 0.23 0.21 0.17 0.09 0.00 0.00 0.00 0.00 0.00 0.00 0.00 0.00 0.00 0.00 0.00 0.00 0.00 0.00 0.00 0.00 0.00 0.00 0.00 0.00 0.00 0.00 0.00 0.00 0.00 0.00 0.00 0.00 0.00 0.00 0.00 0.00 0.00 0.00 0.00
0.11 0.17 0.24 0.21 0.14 0.11 0.10 0.05 0.00 0.00 0.00 0.00 0.00 0.00 0.00 0.00 0.00 0.00 0.00 0.00 0.00 0.00 0.00 0.00 0.00 0.00 0.00 0.00 0.00 0.00 0.00 0.00 0.00 0.00 0.00 0.00 0.00 0.00 0.00 0.00 0.00 0.00 0.00
0.15 0.16 0.12 0.10 0.10 0.06 0.04 0.03 0.01 0.00 0.00 0.00 0.00 0.00 0.00 0.00 0.00 0.00 0.00 0.00 0.00 0.00 0.00 0.00 0.00 0.00 0.00 0.00 0.00 0.00 0.00 0.00 0.00 0.00 0.00 0.00 0.00 0.00 0.00 0.00 0.00 0.00 0.00
0.12 0.10 0.04 0.05 0.07 0.05 0.03 0.02 0.03 0.00 0.00 0.00 0.00 0.00 0.00 0.00 0.00 0.00 0.00 0.00 0.00 0.00 0.00 0.00 0.00 0.00 0.00 0.00 0.00 0.00 0.00 0.00 0.00 0.00 0.00 0.00 0.00 0.00 0.00 0.00 0.00 0.00 0.00
0.05 0.08 0.05 0.02 0.05 0.08 0.05 0.01 0.00 0.00 0.00 0.00 0.00 0.00 0.00 0.00 0.00 0.00 0.00 0.00 0.00 0.00 0.00 0.00 0.00 0.00 0.00 0.00 0.00 0.00 0.00 0.00 0.00 0.00 0.00 0.00 0.00 0.00 0.00 0.00 0.00 0.00 0.00
0.03 0.02 0.06 0.15 0.11 0.04 0.00 0.00 0.00 0.00 0.01 0.01 0.00 0.00 0.00 0.00 0.00 0.00 0.00 0.00 0.00 0.00 0.00 0.00 0.00 0.00 0.00 0.00 0.00 0.00 0.00 0.00 0.00 0.00 0.00 0.00 0.00 0.00 0.00 0.00 0.00 0.00 0.00
0.03 0.02 0.07 0.21 0.22 0.03 0.00 0.00 0.00 0.00 0.00 0.00 0.00 0.00 0.00 0.00 0.00 0.00 0.00 0.00 0.00 0.00 0.00 0.00 0.00 0.00 0.00 0.00 0.00 0.00 0.00 0.00 0.00 0.00 0.00 0.00 0.00 0.00 0.00 0.00 0.00 0.00 0.00
0.07 0.09 0.12 0.18 0.11 0.01 0.00 0.00 0.00 0.00 0.00 0.00 0.00 0.00 0.00 0.00 0.00 0.00 0.00 0.00 0.00 0.00 0.00 0.00 0.00 0.00 0.00 0.00 0.00 0.00 0.00 0.00 0.00 0.00 0.00 0.00 0.00 0.00 0.00 0.00 0.00 0.00 0.00
0.15 0.05 0.09 0.08 0.02 0.00 0.00 0.00 0.00 0.00 0.00 0.00 0.00 0.00 0.00 0.00 0.00 0.00 0.00 0.00 0.00 0.00 0.00 0.00 0.00 0.00 0.00 0.00 0.00 0.00 0.00 0.00 0.00 0.00 0.00 0.00 0.00 0.00 0.00 0.00 0.00 0.00 0.00
0.05 0.02 0.02 0.01 0.00 0.00 0.00 0.00 0.00 0.00 0.00 0.00 0.00 0.00 0.00 0.00 0.00 0.00 0.00 0.00 0.00 0.00 0.00 0.00 0.00 0.00 0.00 0.00 0.00 0.00 0.00 0.00 0.00 0.00 0.00 0.00 0.00 0.00 0.00 0.00 0.00 0.00 0.00
0.05 0.04 0.03 0.03 0.00 0.00 0.00 0.00 0.00 0.00 0.00 0.00 0.00 0.00 0.00 0.00 0.00 0.00 0.00 0.00 0.00 0.00 0.00 0.00 0.00 0.00 0.00 0.00 0.00 0.00 0.00 0.00 0.00 0.00 0.00 0.00 0.00 0.00 0.00 0.00 0.00 0.00 0.00
0.03 0.03 0.01 0.00 0.00 0.00 0.00 0.00 0.00 0.00 0.00 0.00 0.00 0.00 0.00 0.00 0.00 0.00 0.00 0.00 0.00 0.00 0.00 0.00 0.00 0.00 0.00 0.00 0.00 0.00 0.00 0.00 0.00 0.00 0.00 0.00 0.00 0.00 0.00 0.00 0.00 0.00 0.00
0.04 0.02 0.00 0.00 0.00 0.00 0.00 0.00 0.00 0.00 0.00 0.00 0.00 0.00 0.00 0.00 0.00 0.00 0.00 0.00 0.00 0.00 0.00 0.00 0.00 0.00 0.00 0.00 0.00 0.00 0.00 0.00 0.00 0.00 0.00 0.00 0.00 0.00 0.00 0.00 0.00 0.00 0.00
MSLP
1009.81 1010.63 1011.80 1012.24 1013.31 1013.31 1013.60 1013.75 1014.29 1015.09 1016.04 1016.84 1017.81 1018.35 1018.43 1018.57 1018.91 1019.15 1019.65 1020.04 1020.46 1020.65 1020.88 1020.92 1020.85 1020.67 1020.77 1020.74 1020.70 1020.63 1020.50 1020.35 1020.61 1020.93 1020.73 1020.35 1019.94 1019.64 1019.30 1019.05 1018.60 1018.27 1017.99
1010.75 1011.71 1011.88 1012.77 1012.59 1012.69 1012.92 1013.50 1014.21 1015.34 1015.71 1016.60 1017.52 1018.36 1018.86 1018.99 1019.12 1019.30 1019.69 1020.16 1020.66 1021.04 1021.18 1021.28 1021.18 1021.09 1021.15 1021.14 1021.12 1021.17 1020.92 1020.75 1020.84 1021.15 1021.10 1020.81 1020.46 1020.02 1019.82 1019.34 1019.13 1018.68 1018.41
1010.68 1010.92 1012.04 1012.29 1012.48 1011.94 1012.58 1013.65 1014.54 1014.33 1015.35 1016.63 1017.19 1017.89 1018.51 1018.78 1019.26 1019.65 1019.74 1020.37 1020.72 1021.17 1021.40 1021.30 1021.43 1021.15 1021.30 1021.41 1021.50 1021.49 1021.51 1021.40 1021.36 1021.40 1021.48 1021.31 1020.97 1020.67 1020.17 1019.88 1019.52 1019.22 1018.75
1010.11 1011.11 1012.30 1012.27 1011.65 1011.90 1012.46 1013.69 1014.35 1014.42 1015.43 1016.43 1016.79 1017.38 1017.93 1018.62 1019.00 1019.60 1019.95 1020.74 1021.06 1021.42 1021.63 1021.46 1021.47 1021.34 1021.40 1021.56 1021.65 1021.79 1021.81 1021.69 1021.77 1021.69 1021.62 1021.62 1021.43 1021.00 1020.80 1020.54 1019.97 1019.69 1019.22
1008.28 1008.92 1011.68 1012.51 1011.86 1012.10 1012.24 1013.32 1014.18 1014.69 1015.51 1016.26 1017.02 1017.53 1018.05 1018.79 1019.30 1018.86 1019.60 1020.64 1021.00 1021.30 1021.50 1021.47 1021.37 1021.40 1021.18 1021.32 1021.44 1021.70 1021.86 1021.81 1021.88 1021.83 1021.75 1021.75 1021.51 1021.32 1020.93 1020.76 1020.55 1020.07 1019.44
1008.40 1009.51 1010.42 1011.68 1011.85 1011.43 1011.73 1012.94 1014.20 1014.99 1015.60 1016.25 1016.86 1017.55 1018.26 1018.56 1018.83 1019.02 1019.54 1020.45 1020.91 1021.06 1021.39 1021.67 1021.57 1021.73 1021.66 1021.52 1021.41 1021.56 1021.72 1021.75 1021.86 1021.88 1022.02 1021.89 1021.72 1021.44 1021.19 1020.95 1020.75 1020.33 1019.66
1009.04 1009.23 1009.24 1010.52 1011.03 1011.10 1011.54 1012.68 1013.88 1014.90 1015.40 1016.01 1016.71 1017.48 1018.21 1018.62 1019.19 1019.54 1020.09 1020.58 1021.12 1021.34 1021.39 1021.69 1021.84 1021.84 1021.82 1021.77 1021.69 1021.78 1021.70 1021.44 1021.39 1021.58 1021.64 1021.46 1021.28 1021.25 1021.05 1020.86 1020.85 1020.54 1019.89
1006.44 1008.82 1009.27 1009.64 1009.88 1010.52 1011.45 1012.52 1013.63 1014.46 1015.09 1015.82 1016.84 1017.40 1018.04 1018.51 1019.00 1019.67 1020.24 1020.73 1021.27 1021.52 1021.64 1021.82 1021.92 1021.98 1021.91 1021.86 1021.76 1021.77 1021.59 1021.31 1021.10 1021.13 1021.20 1021.03 1021.06 1020.95 1021.11 1020.89 1020.77 1020.45 1019.74
1006.56 1007.03 1007.59 1008.28 1009.23 1010.36 1011.24 1012.04 1012.96 1014.10 1015.24 1015.96 1016.69 1017.38 1017.95 1018.59 1019.13 1019.72 1020.28 1020.79 1021.24 1021.60 1021.63 1021.84 1022.02 1022.00 1021.86 1021.72 1021.70 1021.58 1021.39 1021.28 1021.02 1020.92 1020.74 1020.69 1020.68 1020.48 1020.33 1020.42 1020.21 1020.10 1019.27
1005.67 1005.95 1007.02 1007.69 1008.53 1009.55 1010.28 1011.19 1012.37 1013.49 1014.44 1015.50 1016.53 1017.23 1017.77 1018.46 1019.04 1019.58 1020.03 1020.53 1021.17 1021.45 1021.62 1021.67 1021.64 1021.75 1021.84 1021.72 1021.64 1021.56 1021.27 1021.04 1020.98 1020.96 1020.84 1020.55 1020.50 1020.26 1020.08 1020.04 1020.07 1019.80 1019.51
1006.11 1006.65 1007.27 1007.40 1007.84 1008.83 1010.05 1011.32 1012.43 1013.69 1014.80 1015.49 1016.44 1017.54 1018.10 1018.71 1019.27 1019.52 1019.97 1020.55 1020.91 1021.25 1021.53 1021.58 1021.67 1021.63 1021.61 1021.49 1021.45 1021.45 1021.34 1021.29 1021.27 1021.12 1020.78 1020.40 1020.07 1019.89 1019.77 1019.71 1019.84 1019.74 1019.39
1006.53 1006.92 1007.50 1007.82 1008.29 1009.42 1010.53 1011.76 1012.67 1013.56 1014.85 1015.87 1016.49 1017.69 1018.27 1018.57 1018.98 1019.41 1019.70 1020.19 1020.76 1021.31 1021.51 1021.41 1021.45 1021.50 1021.52 1021.50 1021.40 1021.20 1021.18 1021.34 1021.13 1020.80 1020.57 1020.36 1020.31 1020.21 1020.02 1019.82 1019.66 1019.38 1019.17
1006.90 1007.25 1007.85 1008.08 1008.69 1010.36 1012.44 1012.12 1012.50 1013.68 1014.71 1015.95 1016.64 1017.40 1018.15 1018.74 1018.84 1019.21 1019.57 1019.99 1020.49 1021.02 1021.13 1021.23 1021.27 1021.50 1021.64 1021.40 1021.11 1021.06 1021.06 1020.88 1020.84 1020.70 1020.56 1020.42 1020.56 1020.54 1020.33 1019.89 1019.43 1019.13 1018.63
1006.73 1007.42 1007.76 1008.52 1008.23 1010.47 1012.57 1012.71 1012.33 1013.32 1014.62 1015.72 1016.48 1017.16 1017.93 1018.55 1018.92 1019.19 1019.61 1019.95 1020.34 1020.87 1021.12 1021.09 1021.20 1021.31 1021.17 1021.17 1021.10 1021.00 1020.90 1020.91 1020.74 1020.56 1020.51 1020.52 1020.49 1020.33 1020.21 1020.08 1019.73 1019.31 1018.78
1006.24 1006.85 1007.91 1008.45 1007.45 1009.98 1011.98 1012.24 1012.09 1012.88 1013.48 1014.88 1015.75 1016.08 1017.00 1017.65 1018.02 1018.50 1018.99 1019.68 1020.16 1020.52 1020.89 1021.14 1021.12 1021.10 1021.05 1020.97 1020.87 1020.77 1020.72 1020.64 1020.49 1020.52 1020.47 1020.46 1020.49 1020.45 1020.28 1020.18 1019.90 1019.54 1019.18
1005.79 1007.05 1007.69 1008.42 1008.63 1009.85 1011.59 1012.36 1012.78 1012.90 1013.79 1014.69 1015.24 1015.65 1016.70 1017.28 1017.54 1018.29 1018.81 1019.34 1019.76 1020.29 1020.74 1020.84 1020.81 1020.69 1020.72 1020.69 1020.60 1020.38 1020.40 1020.41 1020.39 1020.47 1020.50 1020.49 1020.38 1020.27 1020.11 1019.82 1019.78 1019.53 1019.05
1004.98 1006.04 1006.41 1007.39 1008.91 1010.09 1010.71 1012.24 1012.98 1013.94 1014.49 1014.48 1015.17 1015.83 1016.54 1016.98 1017.47 1018.26 1018.92 1019.22 1019.65 1020.22 1020.28 1020.37 1020.39 1020.38 1020.36 1020.29 1020.07 1020.11 1020.15 1020.20 1020.30 1020.32 1020.29 1020.19 1020.13 1020.06 1020.02 1019.75 1019.53 1019.31 1018.80
1005.36 1006.01 1004.70 1007.07 1007.65 1009.34 1010.08 1011.81 1012.90 1013.45 1013.94 1014.88 1015.48 1015.81 1016.68 1017.20 1017.40 1017.94 1018.62 1019.23 1019.95 1020.03 1019.73 1019.80 1019.90 1019.90 1019.96 1019.88 1019.79 1019.83 1019.77 1019.85 1019.93 1019.94 1019.92 1019.92 1019.89 1019.90 1019.77 1019.61 1019.38 1019.08 1018.70
1005.14 1005.51 1007.11 1008.22 1008.74 1008.91 1010.31 1011.64 1012.36 1013.11 1013.61 1014.79 1015.72 1016.27 1016.53 1016.56 1017.36 1018.07 1018.20 1018.31 1018.66 1018.96 1019.09 1019.23 1019.38 1019.47 1019.46 1019.43 1019.37 1019.34 1019.35 1019.37 1019.43 1019.53 1019.55 1019.56 1019.59 1019.73 1019.59 1019.42 1019.14 1018.94 1018.63
1005.57 1006.06 1006.97 1007.90 1008.95 1009.35 1010.45 1011.21 1012.18 1012.73 1013.68 1014.52 1014.80 1015.54 1016.45 1016.64 1017.08 1017.56 1017.85 1017.74 1018.00 1018.31 1018.51 1018.75 1018.80 1018.87 1018.85 1018.81 1018.84 1018.88 1018.93 1018.96 1018.95 1019.12 1019.19 1019.28 1019.36 1019.44 1019.34 1019.12 1018.84 1018.54 1018.14
1006.01 1006.78 1007.47 1008.39 1009.26 1009.54 1010.50 1011.04 1011.90 1012.72 1013.48 1014.01 1014.33 1014.82 1015.08 1015.59 1016.06 1016.34 1016.73 1017.16 1017.54 1017.76 1017.96 1018.02 1017.97 1018.06 1018.10 1018.08 1018.14 1018.24 1018.29 1018.32 1018.52 1018.75 1018.91 1018.95 1019.09 1019.06 1019.07 1018.91 1018.59 1018.19 1017.75
1006.01 1007.01 1007.82 1008.28 1008.88 1009.62 1010.21 1011.08 1011.98 1012.71 1013.14 1013.44 1014.22 1014.80 1015.13 1015.29 1015.59 1015.70 1016.19 1016.51 1016.68 1016.81 1016.81 1017.13 1017.26 1017.12 1017.09 1017.15 1017.20 1017.42 1017.63 1017.83 1017.97 1018.25 1018.50 1018.61 1018.75 1018.76 1018.70 1018.49 1018.11 1017.69 1017.30
1005.84 1006.87 1007.59 1008.17 1008.91 1009.63 1010.48 1011.22 1011.85 1012.29 1012.69 1013.17 1013.69 1014.27 1014.90 1014.78 1014.79 1015.07 1015.38 1015.58 1015.79 1015.82 1015.96 1016.39 1016.39 1016.27 1016.29 1016.42 1016.61 1016.70 1016.88 1017.04 1017.27 1017.66 1018.00 1018.18 1018.32 1018.34 1018.26 1017.97 1017.65 1017.29 1016.90
1006.08 1006.80 1007.37 1008.02 1008.60 1009.45 1010.08 1010.73 1011.25 1011.74 1012.24 1012.78 1013.33 1013.58 1013.74 1014.08 1014.28 1014.50 1014.77 1014.97 1015.07 1015.12 1015.35 1015.46 1015.43 1015.40 1015.45 1015.73 1016.02 1016.21 1016.35 1016.59 1016.99 1017.31 1017.62 1017.87 1018.00 1018.00 1017.88 1017.65 1017.29 1016.94 1016.57
1006.46 1007.02 1007.30 1007.94 1008.58 1009.17 1009.84 1010.44 1011.03 1011.52 1011.94 1012.12 1012.44 1012.76 1013.02 1013.42 1013.69 1013.80 1013.88 1013.93 1014.10 1014.28 1014.40 1014.57 1014.64 1014.71 1014.82 1015.09 1015.35 1015.60 1015.93 1016.39 1016.63 1017.06 1017.38 1017.66 1017.72 1017.67 1017.50 1017.24 1016.93 1016.54 1016.12
1006.37 1006.90 1007.45 1008.02 1008.61 1009.18 1009.70 1010.26 1010.70 1011.08 1011.43 1011.50 1011.64 1011.97 1012.40 1012.74 1012.86 1013.02 1013.22 1013.50 1013.58 1013.56 1013.60 1013.75 1013.92 1014.13 1014.35 1014.50 1014.72 1015.10 1015.66 1016.12 1016.48 1016.88 1017.08 1017.34 1017.37 1017.23 1017.07 1016.81 1016.53 1016.16 1015.59
Thickness
5813 5805 5794 5790 5777 5779 5772 5767 5755 5743 5739 5733 5727 5722 5722 5721 5722 5722 5718 5715 5712 5711 5709 5709 5709 5708 5706 5703 5702 5701 5701 5701 5698 5694 5695 5697 5698 5698 5699 5700 5703 5704 5704
5799 5790 5790 5780 5784 5780 5776 5769 5758 5739 5738 5730 5724 5718 5713 5714 5714 5716 5715 5712 5708 5705 5704 5701 5702 5702 5699 5697 5696 5693 5693 5692 5691 5686 5685 5689 5691 5692 5692 5694 5693 5695 5696
5797 5786 5782 5779 5779 5785 5779 5765 5757 5755 5745 5732 5724 5715 5712 5710 5709 5707 5707 5705 5703 5699 5697 5697 5695 5696 5693 5690 5688 5687 5685 5684 5682 5680 5677 5677 5679 5680 5683 5683 5684 5685 5686
5803 5795 5779 5776 5786 5783 5779 5766 5757 5756 5746 5735 5730 5721 5714 5709 5703 5702 5701 5696 5696 5693 5691 5691 5690 5689 5688 5685 5683 5680 5678 5677 5673 5672 5671 5668 5667 5670 5669 5669 5671 5671 5673
5811 5810 5783 5773 5782 5780 5780 5769 5757 5752 5745 5737 5730 5722 5714 5708 5700 5705 5701 5693 5693 5691 5688 5688 5687 5684 5683 5681 5679 5676 5672 5669 5667 5665 5664 5661 5660 5659 5660 5659 5656 5657 5660
5808 5797 5784 5776 5780 5787 5783 5770 5757 5748 5743 5735 5730 5721 5712 5709 5704 5704 5699 5693 5689 5690 5686 5681 5679 5677 5675 5674 5672 5669 5665 5662 5658 5657 5652 5650 5648 5648 5648 5647 5644 5644 5647
5794 5794 5796 5784 5783 5784 5780 5768 5757 5746 5741 5736 5729 5720 5710 5706 5701 5698 5694 5690 5684 5682 5681 5676 5673 5671 5668 5666 5664 5659 5656 5656 5654 5649 5645 5644 5643 5639 5639 5636 5632 5631 5633
5816 5796 5795 5792 5789 5784 5775 5765 5754 5747 5740 5733 5723 5717 5709 5705 5700 5694 5689 5683 5676 5674 5673 5670 5666 5663 5661 5658 5655 5651 5650 5649 5648 5644 5640 5639 5634 5631 5626 5624 5621 5618 5619
5809 5807 5804 5798 5789 5778 5771 5763 5755 5745 5734 5728 5721 5712 5706 5700 5694 5688 5682 5676 5672 5668 5666 5662 5658 5655 5653 5651 5648 5647 5646 5643 5641 5637 5634 5631 5626 5624 5620 5615 5613 5610 5613
5812 5810 5800 5793 5786 5778 5772 5764 5755 5747 5738 5728 5717 5710 5704 5696 5690 5684 5679 5674 5666 5663 5660 5656 5653 5650 5646 5643 5642 5639 5637 5636 5632 5628 5625 5622 5618 5615 5610 5605 5601 5598 5595
5801 5795 5789 5788 5784 5775 5767 5757 5748 5738 5728 5722 5713 5702 5696 5689 5682 5677 5672 5667 5663 5658 5653 5650 5647 5643 5640 5639 5636 5632 5629 5625 5620 5615 5612 5610 5607 5603 5598 5593 5588 5584 5582
5787 5783 5775 5772 5756 5753 5751 5745 5739 5731 5720 5712 5707 5696 5689 5684 5679 5672 5669 5664 5657 5650 5646 5644 5641 5637 5635 5632 5629 5625 5621 5615 5612 5609 5605 5601 5595 5591 5586 5580 5575 5571 5566
5770 5766 5756 5756 5737 5728 5721 5732 5733 5725 5716 5706 5700 5693 5684 5677 5675 5669 5664 5659 5652 5646 5642 5639 5636 5632 5628 5626 5622 5617 5613 5610 5605 5600 5595 5590 5582 5576 5571 5568 5565 5562 5558
5759 5750 5749 5741 5729 5718 5715 5720 5728 5721 5711 5701 5694 5689 5680 5673 5669 5664 5659 5654 5648 5641 5636 5632 5630 5626 5623 5618 5614 5610 5605 5600 5595 5589 5584 5578 5571 5566 5560 5556 5553 5551 5549
5753 5748 5736 5730 5733 5717 5712 5717 5722 5719 5714 5701 5693 5692 5682 5675 5671 5666 5659 5651 5644 5638 5631 5626 5624 5621 5617 5612 5607 5602 5598 5593 5588 5581 5575 5568 5561 5555 5550 5545 5542 5539 5537
5741 5729 5724 5716 5700 5704 5705 5707 5705 5710 5703 5696 5691 5688 5678 5670 5667 5660 5654 5647 5641 5633 5627 5623 5619 5616 5611 5606 5601 5598 5593 5586 5579 5571 5564 5558 5552 5547 5542 5539 5534 5531 5530
5735 5718 5711 5708 5696 5694 5699 5700 5699 5691 5688 5691 5684 5679 5671 5667 5661 5654 5646 5642 5636 5627 5624 5619 5615 5610 5606 5601 5598 5592 5586 5579 5569 5562 5556 5551 5546 5540 5535 5532 5529 5525 5524
5717 5704 5705 5698 5701 5699 5704 5697 5692 5690 5689 5682 5673 5672 5664 5658 5656 5650 5642 5636 5628 5622 5622 5619 5614 5608 5602 5598 5593 5587 5581 5573 5564 5558 5552 5546 5540 5534 5530 5527 5523 5520 5518
5711 5707 5700 5699 5703 5707 5700 5694 5692 5686 5685 5675 5666 5661 5656 5657 5650 5642 5640 5640 5633 5628 5623 5617 5611 5605 5599 5594 5589 5583 5575 5568 5561 5554 5548 5542 5535 5528 5524 5520 5517 5511 5509
5712 5712 5710 5706 5700 5700 5697 5693 5684 5682 5676 5669 5668 5662 5653 5653 5649 5643 5638 5637 5632 5626 5619 5613 5608 5602 5597 5591 5585 5577 5570 5562 5557 5550 5543 5537 5529 5522 5518 5515 5512 5509 5505
5715 5710 5705 5700 5695 5697 5691 5689 5683 5677 5669 5664 5665 5660 5658 5656 5651 5647 5641 5635 5628 5622 5617 5612 5607 5601 5595 5589 5582 5574 5566 5560 5553 5546 5538 5532 5524 5518 5512 5508 5505 5501 5499
5712 5706 5700 5698 5695 5694 5690 5684 5676 5669 5667 5665 5658 5655 5650 5651 5647 5645 5639 5634 5627 5622 5618 5612 5606 5601 5596 5589 5583 5574 5565 5557 5550 5542 5534 5527 5519 5513 5508 5503 5500 5497 5494
5712 5704 5700 5699 5695 5688 5682 5677 5672 5668 5665 5662 5659 5654 5646 5647 5648 5643 5638 5634 5629 5623 5618 5610 5605 5601 5595 5588 5580 5572 5565 5557 5549 5540 5532 5524 5516 5510 5505 5501 5497 5493 5490
5706 5703 5700 5696 5693 5688 5683 5676 5671 5666 5665 5661 5656 5653 5650 5648 5646 5641 5636 5632 5627 5622 5615 5610 5606 5601 5595 5587 5578 5570 5563 5554 5546 5538 5528 5521 5514 5507 5502 5498 5494 5490 5486
5697 5695 5696 5691 5687 5683 5677 5672 5667 5665 5662 5661 5658 5653 5651 5647 5643 5640 5637 5633 5628 5622 5616 5610 5606 5600 5595 5587 5577 5569 5562 5554 5545 5536 5527 5518 5511 5505 5500 5496 5491 5487 5484
5690 5688 5686 5683 5680 5676 5672 5668 5667 5663 5660 5659 5658 5654 5649 5644 5642 5639 5634 5629 5625 5621 5616 5611 5606 5599 5593 5586 5578 5570 5562 5552 5543 5535 5526 5517 5510 5505 5500 5495 5490 5486 5483